Previsão horária em Cekcyn

Hoje, 25 Julho, Domingo

Tempo Temperatura Precipitação Vento Pressão Humidade
00:00 +19°C° 0 mm 2 m/s 751 mmHg 72%
01:00 +19°C° 0 mm 2 m/s 751 mmHg 72%
02:00 +19°C° 0 mm 2 m/s 751 mmHg 73%
03:00 +18°C° 0 mm 2 m/s 751 mmHg 74%
04:00 +18°C° 0 mm 2 m/s 750 mmHg 75%
05:00 +19°C° 0 mm 2 m/s 750 mmHg 73%
06:00 +20°C° 0 mm 3 m/s 750 mmHg 70%
07:00 +21°C° 0 mm 3 m/s 750 mmHg 67%
08:00 +22°C° 0 mm 3 m/s 750 mmHg 61%
09:00 +25°C° 0 mm 4 m/s 750 mmHg 56%
10:00 +27°C° 0 mm 4 m/s 750 mmHg 51%
11:00 +28°C° 0 mm 4 m/s 750 mmHg 48%
12:00 +29°C° 0 mm 4 m/s 750 mmHg 45%
13:00 +30°C° 0 mm 4 m/s 750 mmHg 42%
14:00 +29°C° 0 mm 4 m/s 750 mmHg 44%
15:00 +29°C° 0 mm 4 m/s 749 mmHg 46%
16:00 +28°C° 0 mm 3 m/s 749 mmHg 49%
17:00 +26°C° 0.1 mm 3 m/s 750 mmHg 56%
18:00 +25°C° 0.1 mm 3 m/s 750 mmHg 63%
19:00 +24°C° 0.1 mm 3 m/s 750 mmHg 70%
20:00 +22°C° 0.1 mm 3 m/s 750 mmHg 71%
21:00 +21°C° 0.1 mm 2 m/s 750 mmHg 72%
22:00 +22°C° 0.1 mm 1 m/s 750 mmHg 73%
23:00 +20°C° 0 mm 2 m/s 750 mmHg 75%

Amanhã, 26 Julho, Segunda-feira

Tempo Temperatura Precipitação Vento Pressão Humidade
00:00 +20°C° 0 mm 2 m/s 750 mmHg 78%
01:00 +19°C° 0 mm 2 m/s 750 mmHg 81%
02:00 +20°C° 0.1 mm 2 m/s 750 mmHg 80%
03:00 +20°C° 0.1 mm 2 m/s 749 mmHg 80%
04:00 +20°C° 0.1 mm 2 m/s 749 mmHg 80%
05:00 +20°C° 0 mm 2 m/s 749 mmHg 77%
06:00 +21°C° 0 mm 3 m/s 749 mmHg 73%
07:00 +22°C° 0 mm 3 m/s 749 mmHg 70%
08:00 +23°C° 0 mm 4 m/s 749 mmHg 65%
09:00 +25°C° 0 mm 4 m/s 749 mmHg 60%
10:00 +26°C° 0 mm 4 m/s 749 mmHg 56%
11:00 +27°C° 0 mm 4 m/s 749 mmHg 54%
12:00 +28°C° 0 mm 4 m/s 749 mmHg 53%
13:00 +28°C° 0 mm 4 m/s 749 mmHg 51%
14:00 +29°C° 0 mm 4 m/s 749 mmHg 52%
15:00 +29°C° 0 mm 4 m/s 748 mmHg 52%
16:00 +29°C° 0 mm 4 m/s 748 mmHg 52%
17:00 +27°C° 0.1 mm 4 m/s 748 mmHg 60%
18:00 +25°C° 0.1 mm 4 m/s 748 mmHg 68%
19:00 +23°C° 0.1 mm 4 m/s 748 mmHg 76%
20:00 +22°C° 0.1 mm 3 m/s 748 mmHg 81%
21:00 +21°C° 0.1 mm 3 m/s 748 mmHg 86%
22:00 +20°C° 0.1 mm 2 m/s 748 mmHg 91%
23:00 +19°C° 0.2 mm 2 m/s 748 mmHg 93%

Depois de amanhã, 27 Julho, Terça-feira

Tempo Temperatura Precipitação Vento Pressão Humidade
00:00 +19°C° 0.2 mm 2 m/s 748 mmHg 94%
01:00 +20°C° 0.2 mm 1 m/s 748 mmHg 96%
02:00 +19°C° 0.3 mm 1 m/s 748 mmHg 96%
03:00 +19°C° 0.3 mm 1 m/s 748 mmHg 97%
04:00 +17°C° 0.3 mm 0 m/s 748 mmHg 97%
05:00 +20°C° 0.1 mm 1 m/s 748 mmHg 93%
06:00 +21°C° 0.1 mm 1 m/s 748 mmHg 90%
07:00 +22°C° 0.1 mm 1 m/s 748 mmHg 87%
08:00 +23°C° 0 mm 2 m/s 748 mmHg 78%
09:00 +25°C° 0 mm 3 m/s 748 mmHg 70%
10:00 +27°C° 0 mm 4 m/s 748 mmHg 61%
11:00 +28°C° 0 mm 4 m/s 748 mmHg 55%
12:00 +29°C° 0 mm 5 m/s 748 mmHg 49%
13:00 +32°C° 0 mm 5 m/s 748 mmHg 43%
14:00 +29°C° 0 mm 4 m/s 748 mmHg 48%
15:00 +28°C° 0 mm 4 m/s 748 mmHg 53%
16:00 +26°C° 0 mm 3 m/s 748 mmHg 58%
17:00 +26°C° 0 mm 3 m/s 748 mmHg 61%
18:00 +25°C° 0 mm 2 m/s 748 mmHg 63%
19:00 +25°C° 0 mm 2 m/s 748 mmHg 66%
20:00 +24°C° 0 mm 1 m/s 749 mmHg 68%
21:00 +23°C° 0 mm 1 m/s 749 mmHg 70%
22:00 +22°C° 0 mm 1 m/s 749 mmHg 73%
23:00 +21°C° 0 mm 1 m/s 749 mmHg 74%

28 Julho, Quarta-feira

Tempo Temperatura Precipitação Vento Pressão Humidade
00:00 +21°C° 0 mm 1 m/s 749 mmHg 75%
01:00 +20°C° 0 mm 1 m/s 749 mmHg 77%
02:00 +20°C° 0 mm 1 m/s 749 mmHg 78%
03:00 +20°C° 0 mm 1 m/s 748 mmHg 79%
04:00 +20°C° 0 mm 1 m/s 748 mmHg 81%
05:00 +21°C° 0 mm 2 m/s 748 mmHg 74%
06:00 +23°C° 0 mm 2 m/s 748 mmHg 68%
07:00 +25°C° 0 mm 2 m/s 748 mmHg 62%
08:00 +26°C° 0 mm 2 m/s 748 mmHg 56%
09:00 +27°C° 0 mm 3 m/s 748 mmHg 51%
10:00 +29°C° 0 mm 3 m/s 748 mmHg 45%
11:00 +27°C° 0.1 mm 4 m/s 749 mmHg 52%
12:00 +26°C° 0.1 mm 4 m/s 749 mmHg 60%
13:00 +23°C° 0.1 mm 5 m/s 749 mmHg 68%
14:00 +22°C° 0.1 mm 4 m/s 749 mmHg 73%
15:00 +21°C° 0.1 mm 4 m/s 749 mmHg 79%
16:00 +20°C° 0.1 mm 3 m/s 749 mmHg 84%
17:00 +20°C° 0 mm 3 m/s 749 mmHg 85%
18:00 +20°C° 0 mm 3 m/s 749 mmHg 86%
19:00 +19°C° 0 mm 3 m/s 749 mmHg 87%
20:00 +19°C° 0 mm 2 m/s 749 mmHg 90%
21:00 +18°C° 0 mm 2 m/s 749 mmHg 93%
22:00 +17°C° 0 mm 2 m/s 749 mmHg 96%
23:00 +17°C° 0 mm 2 m/s 749 mmHg 96%

29 Julho, Quinta-feira

Tempo Temperatura Precipitação Vento Pressão Humidade
00:00 +17°C° 0 mm 2 m/s 749 mmHg 96%
01:00 +17°C° 0 mm 2 m/s 749 mmHg 96%
02:00 +16°C° 0 mm 2 m/s 749 mmHg 95%
03:00 +16°C° 0 mm 2 m/s 749 mmHg 95%
04:00 +16°C° 0 mm 2 m/s 749 mmHg 95%
05:00 +17°C° 0 mm 2 m/s 749 mmHg 88%
06:00 +19°C° 0 mm 3 m/s 749 mmHg 80%
07:00 +20°C° 0 mm 3 m/s 749 mmHg 73%
08:00 +22°C° 0 mm 3 m/s 749 mmHg 65%
09:00 +23°C° 0 mm 4 m/s 749 mmHg 58%
10:00 +26°C° 0 mm 4 m/s 749 mmHg 50%
11:00 +26°C° 0 mm 4 m/s 749 mmHg 47%
12:00 +26°C° 0 mm 4 m/s 749 mmHg 45%
13:00 +27°C° 0 mm 4 m/s 748 mmHg 42%
14:00 +27°C° 0 mm 4 m/s 748 mmHg 43%
15:00 +26°C° 0 mm 3 m/s 748 mmHg 43%
16:00 +26°C° 0 mm 2 m/s 748 mmHg 44%
17:00 +25°C° 0 mm 2 m/s 747 mmHg 48%
18:00 +24°C° 0 mm 2 m/s 747 mmHg 52%
19:00 +23°C° 0 mm 2 m/s 747 mmHg 56%
20:00 +21°C° 0 mm 2 m/s 747 mmHg 61%
21:00 +20°C° 0 mm 2 m/s 747 mmHg 65%
22:00 +19°C° 0 mm 2 m/s 747 mmHg 70%
23:00 +20°C° 0 mm 1 m/s 747 mmHg 72%

30 Julho, Sexta-feira

Tempo Temperatura Precipitação Vento Pressão Humidade
00:00 +19°C° 0 mm 1 m/s 747 mmHg 75%
01:00 +18°C° 0 mm 1 m/s 747 mmHg 77%
02:00 +18°C° 0 mm 1 m/s 747 mmHg 77%
03:00 +17°C° 0 mm 2 m/s 747 mmHg 77%
04:00 +17°C° 0 mm 2 m/s 747 mmHg 77%
05:00 +18°C° 0 mm 3 m/s 746 mmHg 70%
06:00 +20°C° 0 mm 3 m/s 746 mmHg 63%
07:00 +21°C° 0 mm 4 m/s 746 mmHg 55%
08:00 +23°C° 0 mm 4 m/s 746 mmHg 53%
09:00 +25°C° 0 mm 5 m/s 746 mmHg 50%
10:00 +26°C° 0 mm 6 m/s 746 mmHg 48%
11:00 +26°C° 0 mm 6 m/s 746 mmHg 46%
12:00 +27°C° 0 mm 6 m/s 746 mmHg 45%
13:00 +27°C° 0 mm 6 m/s 746 mmHg 44%
14:00 +26°C° 0 mm 6 m/s 746 mmHg 45%
15:00 +26°C° 0 mm 5 m/s 746 mmHg 46%
16:00 +25°C° 0 mm 5 m/s 746 mmHg 47%
17:00 +25°C° 0 mm 4 m/s 746 mmHg 48%
18:00 +23°C° 0 mm 4 m/s 746 mmHg 50%
19:00 +22°C° 0 mm 3 m/s 746 mmHg 52%
20:00 +21°C° 0 mm 3 m/s 746 mmHg 54%
21:00 +20°C° 0 mm 2 m/s 746 mmHg 57%
22:00 +19°C° 0 mm 2 m/s 746 mmHg 59%
23:00 +18°C° 0 mm 2 m/s 746 mmHg 59%
Mostrar mais

Necessitamos do seu Consentimento

A Meteoprog e os seus Fornecedores de Serviços podem armazenar e aceder a dados pessoais como cookies, identificadores do dispositivo ou outras tecnologias semelhantes existentes no seu dispositivo e processar estes dados para personalizar conteúdos e anúncios, assim como funcionalidades nas redes sociais e análise de tráfego.

  • Armazenar e/ou aceder a informações no seu dispositivo

    Os cookies, identificadores do dispositivo ou outras informações podem ser armazenados ou acedidos no seu dispositivo, para os fins acima indicados.

  • Anúncios e conteúdos personalizados, medição de anúncios e conteúdos, dados sobre o público-alvo e desenvolvimento de produtos

    Os anúncios e os conteúdos podem ser personalizados com base num perfil. Podem ser adicionados dados adicionais para uma maior personalização dos anúncios e dos conteúdos. A eficácia dos anúncios e dos conteúdos pode ser medida. Podem ser obtidas informações sobre o público que visualizou os anúncios e os conteúdos. Estes dados podem ser usados para desenvolver ou melhorar sistemas, softwares ou a experiência do utilizador.

Ao clicar em "Eu concordo”, permitirá o uso de cookies, identificadores do dispositivo e web beacons mencionados ou outras tecnologias semelhantes. As configurações do navegador do seu dispositivo podem ser alteradas.

Para certos fins, podem ser invocados interesses legítimos ao invés de consentimento. Pode ler mais informação sobre este assunto na nossa Política de Privacidade e Cookies.